Location: Wellington
(41.3000°S, 174.7830°E)
Time: 18:16:15
(UTC+13:00)

ARGOS - Pass Details

Date: 24 January 2019
Orbit: 821 x 834 km, 98.5° (Epoch: 16 February)

Event Time Altitude Azimuth Distance (km) Brightness Sun altitude
Rises 23:11:19 0° 172° (S) 3,394 7.0 -21.2°
Reaches altitude 10° 23:13:44 10° 176° (S) 2,453 6.3 -21.4°
Maximum altitude 23:19:00 53° 251° (WSW) 1,017 3.8 -22.0°
Enters shadow 23:23:31 14° 324° (NW) 2,166 5.1 -22.5°
